Location: Audinghen
(50.8518°N, 1.6129°E)
Time: 16:13:37
(UTC+00:00)

Cosmos 44 Rocket - Pass Details

Date: 07 August 2020
Orbit: 647 x 743 km, 65.1° (Epoch: 19 September)

Event Time Altitude Azimuth Distance (km) Brightness Sun altitude
Rises 00:46:51 0° 318° (NW) 3,085 7.1 -22.0°
Reaches altitude 10° 00:49:11 10° 316° (NW) 2,179 6.3 -21.9°
Maximum altitude 00:54:07 69° 234° (SW) 771 3.3 -21.7°
Enters shadow 00:55:09 53° 176° (S) 884 3.4 -21.7°
